Regional Weather Roundup
Issued by NWS

Home | Current Version | Previous Version | Text Only | Print | Product List | Glossary Off
Versions: 1 2 3 4 5 6 7 8 9 10 11 12 13 14 15 16 17 18 19 20 21 22 23 24 25 26 27 28 29 30 31 32 33 34 35 36 37 38 39 40 41 42 43 44 45 46 47 48 49 50

000
ASUS43 KDTX 211010
RWRMI
MICHIGAN HOURLY REGIONAL WEATHER ROUNDUP
NATIONAL WEATHER SERVICE DETROIT/PONTIAC MI
ISSUED BY NATIONAL WEATHER SERVICE GRAND RAPIDS MI
600 AM EDT MON AUG 21 2017

NOTE: "FAIR" INDICATES FEW OR NO CLOUDS BELOW 12,000 FEET WITH NO
SIGNIFICANT WEATHER AND/OR OBSTRUCTION TO VISIBILITY.

MIZ047>049-052>055-059>063-066>070-074>076-081>083-211100-
SOUTHEAST LOWER MICHIGAN

CITY           SKY/WX    TMP DP  RH WIND       PRES   REMARKS
ADRIAN         MOCLDY    65  64  97 CALM      30.11R
ALMA           MOCLDY    64  63  94 S5        30.08R
ANN ARBOR      FOG       61  60  97 CALM      30.09S VSB 1/4
BAD AXE        CLEAR     65  62  90 CALM      30.06F
DETROIT CITY   CLEAR     68  65  90 CALM      30.09S
DETROIT        CLOUDY    71  69  93 CALM      30.10R
FLINT          CLOUDY    67  64  90 SW5       30.09R
GROSSE ILE     PTCLDY    69  68  96 CALM      30.08S
HILLSDALE      MOCLDY    68  64  88 CALM      30.10S
HOWELL         CLEAR     68  65  90 CALM      30.10R

CITY           SKY/WX    TMP DP  RH WIND       PRES   REMARKS
JACKSON        CLEAR     67  63  87 CALM      30.10R
LANSING        CLOUDY    69  63  81 CALM      30.09R
MASON          CLOUDY    69  64  84 E6        30.10R
MONROE         FOG       65  64  97 CALM      30.08S VSB 1/2
MT. CLEMENS    CLEAR     64  64 100 CALM      30.06F FOG
PONTIAC        CLOUDY    66  65  96 CALM      30.08S
PORT HOPE        N/A     68  62  81 SW6       30.03F
PORT HURON     FOG       61  59  94 CALM      30.08F VSB 1/2
TRI CITIES     CLEAR     67  65  93 SW6       30.08R
YPSILANTI      FOG       65  65 100 CALM      30.10R VSB 1/4
$$
MIZ043>046-050>051-056>058-064>065-071>073-077>080-211100-
SOUTHWEST LOWER MICHIGAN

CITY           SKY/WX    TMP DP  RH WIND       PRES   REMARKS
BATTLE CREEK   CLOUDY    70  65  84 S3        30.09R
BENTON HARBOR  CLOUDY    74  64  71 S5        30.06R
BIG RAPIDS     CLEAR     59  57  94 CALM      30.08R
COLDWATER      CLOUDY    69  67  95 CALM      30.10R
HOLLAND        CLEAR     67  64  90 CALM      30.07R
GRAND RAPIDS   CLOUDY    68  66  93 S7        30.07R
KALAMAZOO      CLOUDY    72  63  73 CALM      30.08R
MARSHALL       CLEAR     66  66  98 CALM      30.09R
MOUNT PLEASANT PTCLDY    66  64  93 CALM      30.07R
MUSKEGON       CLEAR     67  64  90 SE3       30.06R
STURGIS        MOCLDY    70  65  86 CALM      30.09R
$$
MIZ016>042-211100-
NORTHERN LOWER MICHIGAN

CITY           SKY/WX    TMP DP  RH WIND       PRES   REMARKS
ALPENA         CLEAR     69  63  81 W3        30.02F
BEAVER ISLAND  CLOUDY    66  66 100 CALM      30.01R FOG
BELLAIRE       CLEAR     63  61  93 CALM      30.03R
CADILLAC       CLEAR     63  60  90 SW3       30.08R
CHARLEVOIX     PTCLDY    68  67  96 CALM      30.05R
GAYLORD        CLOUDY    66  61  84 CALM      30.04R
HOUGHTON LAKE  CLEAR     63  60  90 S6        30.07R
MANISTEE       CLEAR     60  59  96 CALM      30.04R
OSCODA         CLEAR     65  61  86 SW6       30.03S
PELLSTON       PTCLDY    67  66  97 CALM      30.01R
TRAVERSE CITY  CLEAR     69  62  78 CALM      30.02R
LUDINGTON      CLEAR     61  60  96 CALM      30.05R
$$
MIZ007>008-015-211100-
EASTERN UPPER MICHIGAN

CITY           SKY/WX    TMP DP  RH WIND       PRES   REMARKS
KINROSS        FOG       64  64 100 S3        30.00S VSB 1
MACKINAC ISLAN MOCLDY    67  67 100 SW6       30.00S FOG
NEWBERRY       PTCLDY    61  60  97 SW5       29.99R FOG
S. S. MARIE    PTCLDY    62  61  96 CALM      29.97F FOG
$$
MIZ004>006-011>014-085-211100-
CENTRAL UPPER MICHIGAN

CITY           SKY/WX    TMP DP  RH WIND       PRES   REMARKS
MANISTIQUE     CLOUDY    63  57  81 CALM      30.01R
ESCANABA       CLOUDY    67  65  93 W6        30.02R
MENOMINEE      CLEAR     67  66  97 SW3       30.03R
SAWYER-GWINN   PTCLDY    61  59  92 SW5       30.04R
$$
MIZ001>003-009>011-084-211100-
WESTERN UPPER MICHIGAN

CITY           SKY/WX    TMP DP  RH WIND       PRES   REMARKS
IRON MOUNTAIN  CLOUDY    67  63  87 CALM      30.04R
HOUGHTON       CLEAR     57  53  86 NW8       30.01R
COPPER HARBOR    N/A     63  52  67 CALM      29.98S
IRONWOOD       PTCLDY    50  50 100 CALM      30.07R FOG
$$

ABBREVIATIONS USED IN REMARKS
   TC - TEMPERATURE IN CELSIUS
  WCI - WIND CHILL INDEX
   HX - HEAT INDEX
  VSB - VISIBILITY





USA.gov is the U.S. government's official web portal to all federal, state and local government web resources and services.